SL-8 R/B

Satellite information

Favourite Embed

Satellite Type and Status

ROCKET BODYIN ORBIT

Key statistics

Satellite SL-8 R/B at a glance.

Uptime

18863

Days in orbit

Revolutions

≈ 13.8

Per day

Orbit

LEO

Low Earth Orbit

Inclination

83.0

Latest

Satellite identification and parameters

Extended collection of information and parameters for SL-8 R/B.

Object identification

Identified? True

Debris? False

Object name: SL-8 R/B

International designator: 1974-001B

Object number (NORAD): 7095

Object ID (CCSDS): 7095

Country: COMMONWEALTH OF INDEPENDENT STATES (CIS)

Current information (Y/N): Y

RCS size: LARGE

Orbital parameters

Period: 104.423 minutes

Inclination: 82.9507 deg

SMA: 7345.547 km

Apoapsis: 994.168 km

Periapsis: 940.657 km

RAAN: 318.1531 deg

Eccentricy: 0.0036424

Argument of periapsis: 334.6231 deg

Mean anomaly: 25.3137 deg

Mean motion: 13.79007151 rev/day

Mean motion (dot): 0.00000115 rev/day2

B* drag term: 0.000097229584 1/REarth

Two-line elements (TLE)

Creation date: Sept. 8, 2025, 6:18 p.m.

Reference frame: TEME

Reference center: EARTH

Epoch: Sept. 8, 2025, 1:08 p.m. UTC

TLE line 0: 0 SL-8 R/B

TLE line 1: 1 07095U 74001B 25251.54767531 .00000115 00000-0 97230-4 0 9998

TLE line 2: 2 07095 82.9507 318.1531 0036424 334.6231 25.3137 13.79007151596709

Live tracking on map

Real-time ground track for satellite SL-8 R/B.

In-orbit conjunctions

A list of the most updated potential collisions computed for object SL-8 R/B.

Target Orbit TCA Probability of collision Miss distance Type
THORAD AGENA D DEB SSO 2025-03-08 21:12:06 0.0006119805 100.0 (m) DEBRIS
THORAD AGENA D DEB SSO 2024-09-29 17:50:02 0.001035255 181.0 (m) DEBRIS

Associated space launch

The first soviet navigation system called Tsiklon consisted of Zaliv satellites in low earth orbit.

SL-8 R/B was lifted into orbit during the mission ‘Kosmos-3M | Zaliv 16’, on board a Kosmos-3M space rocket.

The launch took place on Jan. 17, 1974, 10:07 a.m. from 132/2.

For more information about the launch, click the button.

Launch to space Kosmos-3M | Zaliv 16
Kosmos-3M | Zaliv 16

Agency: N/A

Status: Launch Successful

Launch date: Jan. 17, 1974, 10:07 a.m. UTC

Rocket: Kosmos-3M

Launch pad: 132/2

Location: Plesetsk Cosmodrome, Russian Federation

...

Latest news about this satellite

There are no fresh news available about this satellite. Check back as we update our databases every day.


Newsletter sign-up

Weekly statistics, charts and insights to help you stay on top of the space industry.